Weather History for KREO - October, 2012

Change the Weather History Date:

Friday, October 5, 2012

  Actual Average Record
Temperature  
Mean Temperature 43 °F 52 °F  
Max Temperature 63 °F 70 °F 85 °F (1975)
Min Temperature 23 °F 34 °F 23 °F (2012)
Degree Days  
Heating Degree Days 22 13  
Month to date heating degree days 67 62  
Since 1 July heating degree days 124 286  
Cooling Degree Days 0 0  
Month to date cooling degree days 0 0  
Year to date cooling degree days 674 506  
Moisture  
Dew Point 9 °F    
Average Humidity 26    
Maximum Humidity 38    
Minimum Humidity 14    
Precipitation  
Precipitation 0.00 in 0.02 in 0.55 in (1949)
Month to date precipitation 0.00 0.08  
Year to date precipitation 4.28 6.81  
Sea Level Pressure  
Sea Level Pressure 30.22 in    
Wind  
Wind Speed 5 mph (NE)    
Max Wind Speed 12 mph    
Max Gust Speed 16 mph    
T = Trace of Precipitation, MM = Missing Value Source: NWS Daily Summary

Daily Weather History Graph

Daily Weather History Graph

Search for Another Location

Airport or City:

Trip Planner

Search our weather history database for the weather conditions in past years. The results will help you decide how hot, cold, wet, or windy it might be!

Date:

Astronomy

Oct. 05, 2012 Rise Set
Actual Time 6:53 AM PDT 6:24 PM PDT
Civil Twilight 6:25 AM PDT 6:53 PM PDT
Nautical Twilight 5:52 AM PDT 7:25 PM PDT
Astronomical Twilight 5:20 AM PDT 7:58 PM PDT
Moon 9:46 PM PDT (10/5) 12:11 PM PDT (10/5)
Length of Visible Light 12h 27m
Length of Day
11h 31m
Waning Gibbous, 73% of the Moon is Illuminated
Oct 5
Waning Gibbous
Oct 8
Last Quarter
Oct 15
New
Oct 21
First Quarter
Oct 29
Full

Hourly Weather History & Observations

Time (PDT) Temp. Windchill Dew Point Humidity Pressure Visibility Wind Dir Wind Speed Gust Speed Precip Events Conditions
12:52 AM 34.0 °F - 1.9 °F 26% 30.20 in - Calm Calm - N/A   Unknown
1:52 AM 30.9 °F - 3.9 °F 32% 30.21 in - Calm Calm - N/A   Unknown
2:52 AM 28.0 °F - 3.0 °F 34% 30.22 in - Calm Calm - N/A   Unknown
3:52 AM 36.0 °F 32.1 °F 9.0 °F 33% 30.19 in - North 4.6 mph - N/A   Unknown
4:52 AM 27.0 °F - 3.0 °F 36% 30.22 in - Calm Calm - N/A   Unknown
5:52 AM 27.0 °F 21.6 °F 3.9 °F 37% 30.23 in - SE 4.6 mph - N/A   Unknown
6:52 AM 26.1 °F - 5.0 °F 41% 30.27 in - Calm Calm - N/A   Unknown
7:52 AM 35.1 °F - 8.1 °F 33% 30.26 in - Calm Calm - N/A   Unknown
8:52 AM 41.0 °F - 10.9 °F 29% 30.26 in - Calm Calm - N/A   Unknown
9:52 AM 46.0 °F 44.8 °F 14.0 °F 28% 30.25 in - North 3.5 mph - N/A   Unknown
10:52 AM 50.0 °F - 12.9 °F 23% 30.24 in - North 8.1 mph - N/A   Unknown
11:52 AM 54.0 °F - 12.0 °F 19% 30.23 in - NNE 9.2 mph - N/A   Unknown
12:52 PM 57.9 °F - 10.9 °F 16% 30.22 in - Variable 6.9 mph - N/A   Unknown
1:52 PM 61.0 °F - 12.0 °F 15% 30.20 in - NNE 6.9 mph - N/A   Unknown
2:52 PM 62.1 °F - 12.9 °F 15% 30.19 in - Variable 6.9 mph - N/A   Unknown
3:52 PM 62.1 °F - 14.0 °F 15% 30.16 in - Calm Calm - N/A   Unknown
4:52 PM 62.1 °F - 14.0 °F 15% 30.17 in - NNE 5.8 mph - N/A   Unknown
5:52 PM 57.9 °F - 10.9 °F 16% 30.18 in - North 6.9 mph - N/A   Unknown
6:52 PM 51.1 °F - 9.0 °F 18% 30.21 in - North 8.1 mph - N/A   Unknown
7:52 PM 46.9 °F - 9.0 °F 21% 30.22 in - NE 8.1 mph - N/A   Unknown
8:52 PM 43.0 °F 39.5 °F 8.1 °F 24% 30.22 in - NE 5.8 mph - N/A   Unknown
9:52 PM 36.0 °F 32.1 °F 5.0 °F 27% 30.23 in - ESE 4.6 mph - N/A   Unknown
10:52 PM 43.0 °F 41.3 °F 10.0 °F 26% 30.22 in - NE 3.5 mph - N/A   Unknown
11:52 PM 30.9 °F 27.5 °F 3.0 °F 31% 30.24 in - SE 3.5 mph - N/A   Unknown